Weather History for Lincoln, NE

Change the Weather History Date:

Monday, November 4, 2013

  Actual Average Record
Temperature  
Mean Temperature 44 °F 45 °F  
Max Temperature 57 °F 57 °F 80 °F (1909)
Min Temperature 31 °F 33 °F -4 °F (1991)
Degree Days  
Heating Degree Days 21 20  
Month to date heating degree days 70 77  
Since 1 July heating degree days 526 556  
Cooling Degree Days 0 0  
Month to date cooling degree days 0 0  
Year to date cooling degree days 1236 1173  
Moisture  
Dew Point 35 °F    
Average Humidity 63    
Maximum Humidity 82    
Minimum Humidity 43    
Precipitation  
Precipitation 0.00 in 0.06 in 0.97 in (1905)
Month to date precipitation T 0.23  
Year to date precipitation 25.27 26.80  
Snow  
Snow 0.00 in 0.10 in - ()
Month to date snowfall 0.0 0.2  
Since 1 July snowfall 0.0 0.9  
Snow Depth 0.00 in    
Sea Level Pressure  
Sea Level Pressure 29.98 in    
Wind  
Wind Speed 9 mph (NNE)    
Max Wind Speed 24 mph    
Max Gust Speed 31 mph    
Visibility 10 miles    
Events      
T = Trace of Precipitation, MM = Missing Value Source: NWS Daily Summary

Daily Weather History Graph

Daily Weather History Graph

Search for Another Location

Airport:

Trip Planner

Search our weather history database for the weather conditions in past years. The results will help you decide how hot, cold, wet, or windy it might be!

Date:

Astronomy

Nov. 04, 2013 Rise Set
Actual Time 7:01 AM CST 5:19 PM CST
Civil Twilight 6:32 AM CST 5:47 PM CST
Nautical Twilight 6:00 AM CST 6:20 PM CST
Astronomical Twilight 5:28 AM CST 6:52 PM CST
Moon 8:13 AM CST (11/4) 6:24 PM CST (11/4)
Length of Visible Light 11h 15m
Length of Day
10h 17m
New Moon, 2% of the Moon is Illuminated
Nov 4
New Moon
Nov 9
First Quarter
Nov 17
Full
Nov 25
Last Quarter
Dec 2
New

Hourly Weather History & Observations

Time (CST) Temp. Windchill Dew Point Humidity Pressure Visibility Wind Dir Wind Speed Gust Speed Precip Events Conditions
12:54 AM 50.0 °F - 37.0 °F 61% 29.78 in 10.0 mi SSE 10.4 mph - N/A   Mostly Cloudy
1:54 AM 51.1 °F - 37.0 °F 59% 29.79 in 10.0 mi South 10.4 mph - N/A   Scattered Clouds
2:54 AM 50.0 °F - 37.0 °F 61% 29.78 in 10.0 mi South 10.4 mph - N/A   Mostly Cloudy
3:54 AM 50.0 °F - 37.9 °F 63% 29.78 in 10.0 mi SSE 8.1 mph - N/A   Clear
4:54 AM 48.9 °F - 39.0 °F 69% 29.78 in 10.0 mi SSE 9.2 mph - N/A   Partly Cloudy
5:54 AM 48.0 °F - 39.0 °F 71% 29.80 in 10.0 mi South 9.2 mph - N/A   Clear
6:54 AM 45.0 °F 42.6 °F 37.9 °F 76% 29.82 in 10.0 mi SSE 4.6 mph - N/A   Clear
7:54 AM 46.9 °F - 41.0 °F 80% 29.86 in 10.0 mi South 5.8 mph - N/A   Overcast
8:54 AM 48.9 °F - 39.9 °F 71% 29.91 in 10.0 mi West 6.9 mph - N/A   Overcast
9:54 AM 50.0 °F - 39.0 °F 66% 29.93 in 10.0 mi NW 12.7 mph - N/A   Mostly Cloudy
10:54 AM 54.0 °F - 37.0 °F 53% 29.97 in 10.0 mi North 18.4 mph - N/A   Clear
11:54 AM 55.9 °F - 36.0 °F 47% 29.99 in 10.0 mi North 15.0 mph 24.2 mph N/A   Clear
12:54 PM 55.9 °F - 36.0 °F 47% 29.99 in 10.0 mi North 17.3 mph 27.6 mph N/A   Clear
1:54 PM 57.0 °F - 36.0 °F 45% 30.01 in 10.0 mi North 12.7 mph 20.7 mph N/A   Clear
2:54 PM 57.0 °F - 35.1 °F 44% 30.01 in 10.0 mi NNE 15.0 mph 18.4 mph N/A   Clear
3:54 PM 55.9 °F - 35.1 °F 45% 30.04 in 10.0 mi NNE 10.4 mph - N/A   Clear
4:54 PM 51.1 °F - 35.1 °F 54% 30.06 in 10.0 mi NNE 8.1 mph - N/A   Clear
5:54 PM 43.0 °F 38.8 °F 32.0 °F 65% 30.09 in 10.0 mi NE 6.9 mph - N/A   Clear
6:54 PM 39.0 °F 35.7 °F 32.0 °F 76% 30.12 in 10.0 mi North 4.6 mph - N/A   Clear
7:54 PM 36.0 °F - 30.0 °F 79% 30.14 in 10.0 mi Calm Calm - N/A   Clear
8:54 PM 36.0 °F - 30.0 °F 79% 30.15 in 10.0 mi Calm Calm - N/A   Clear
9:54 PM 33.1 °F 28.7 °F 28.0 °F 82% 30.17 in 10.0 mi NNW 4.6 mph - N/A   Clear
10:54 PM 34.0 °F 26.0 °F 28.9 °F 82% 30.15 in 10.0 mi North 10.4 mph - N/A   Partly Cloudy
11:54 PM 30.9 °F 25.2 °F 28.0 °F 89% 30.16 in 10.0 mi North 5.8 mph - N/A   Clear